• In Deutschland
  • Länderverzeichnis
  • Für 7 Tage
  • Wassertemperatur
  • Satellitenkarten
  • Wetterkarte
  • Widgets
  • user-avatar
    Anmelden

    Stündliche Wetter Kuntaur

    Heute, 23 Mai, Mittwoch

    Zeit Temperatur Niederschläge Wind Luftdruck Luftfeuchtigkeit
    00:00 +34°C° 0 mm 5 m/S 756 mmHg 23%
    01:00 +33°C° 0 mm 5 m/S 756 mmHg 26%
    02:00 +30°C° 0 mm 5 m/S 756 mmHg 28%
    03:00 +29°C° 0 mm 4 m/S 756 mmHg 30%
    04:00 +28°C° 0 mm 2 m/S 756 mmHg 32%
    05:00 +28°C° 0 mm 1 m/S 756 mmHg 33%
    06:00 +29°C° 0 mm 2 m/S 757 mmHg 30%
    07:00 +30°C° 0 mm 2 m/S 757 mmHg 27%
    08:00 +32°C° 0 mm 2 m/S 758 mmHg 24%
    09:00 +36°C° 0 mm 3 m/S 757 mmHg 20%
    10:00 +38°C° 0 mm 3 m/S 757 mmHg 16%
    11:00 +42°C° 0 mm 3 m/S 757 mmHg 12%
    12:00 +44°C° 0 mm 4 m/S 756 mmHg 11%
    13:00 +45°C° 0 mm 4 m/S 756 mmHg 10%
    14:00 +48°C° 0 mm 4 m/S 755 mmHg 9%
    15:00 +48°C° 0 mm 4 m/S 754 mmHg 9%
    16:00 +48°C° 0 mm 4 m/S 754 mmHg 9%
    17:00 +47°C° 0 mm 3 m/S 754 mmHg 8%
    18:00 +45°C° 0 mm 3 m/S 754 mmHg 10%
    19:00 +43°C° 0 mm 3 m/S 755 mmHg 11%
    20:00 +40°C° 0 mm 3 m/S 755 mmHg 12%
    21:00 +38°C° 0 mm 4 m/S 755 mmHg 16%
    22:00 +36°C° 0 mm 4 m/S 756 mmHg 19%
    23:00 +34°C° 0 mm 5 m/S 756 mmHg 23%

    Morgen, 24 Mai, Donnerstag

    Zeit Temperatur Niederschläge Wind Luftdruck Luftfeuchtigkeit
    00:00 +33°C° 0 mm 4 m/S 756 mmHg 27%
    01:00 +31°C° 0 mm 3 m/S 756 mmHg 31%
    02:00 +29°C° 0 mm 2 m/S 756 mmHg 34%
    03:00 +29°C° 0 mm 2 m/S 757 mmHg 37%
    04:00 +28°C° 0 mm 2 m/S 757 mmHg 40%
    05:00 +27°C° 0 mm 2 m/S 757 mmHg 44%
    06:00 +28°C° 0 mm 2 m/S 758 mmHg 41%
    07:00 +30°C° 0 mm 2 m/S 758 mmHg 37%
    08:00 +31°C° 0 mm 2 m/S 758 mmHg 34%
    09:00 +35°C° 0 mm 2 m/S 758 mmHg 28%
    10:00 +38°C° 0 mm 2 m/S 757 mmHg 21%
    11:00 +41°C° 0 mm 2 m/S 757 mmHg 14%
    12:00 +42°C° 0 mm 2 m/S 756 mmHg 12%
    13:00 +45°C° 0 mm 2 m/S 755 mmHg 11%
    14:00 +46°C° 0 mm 2 m/S 754 mmHg 9%
    15:00 +46°C° 0 mm 2 m/S 754 mmHg 9%
    16:00 +46°C° 0 mm 2 m/S 754 mmHg 9%
    17:00 +45°C° 0 mm 1 m/S 753 mmHg 9%
    18:00 +43°C° 0 mm 2 m/S 754 mmHg 12%
    19:00 +42°C° 0 mm 3 m/S 754 mmHg 14%
    20:00 +40°C° 0 mm 4 m/S 755 mmHg 17%
    21:00 +36°C° 0 mm 4 m/S 756 mmHg 26%
    22:00 +34°C° 0 mm 4 m/S 756 mmHg 34%
    23:00 +32°C° 0 mm 5 m/S 757 mmHg 43%

    übermorgen, 25 Mai, Freitag

    Zeit Temperatur Niederschläge Wind Luftdruck Luftfeuchtigkeit
    00:00 +30°C° 0 mm 4 m/S 757 mmHg 46%
    01:00 +29°C° 0 mm 4 m/S 757 mmHg 49%
    02:00 +28°C° 0 mm 3 m/S 757 mmHg 52%
    03:00 +27°C° 0 mm 3 m/S 757 mmHg 55%
    04:00 +27°C° 0 mm 3 m/S 757 mmHg 57%
    05:00 +26°C° 0 mm 3 m/S 757 mmHg 59%
    06:00 +27°C° 0 mm 3 m/S 757 mmHg 55%
    07:00 +28°C° 0 mm 3 m/S 758 mmHg 50%
    08:00 +29°C° 0 mm 3 m/S 758 mmHg 45%
    09:00 +32°C° 0 mm 2 m/S 758 mmHg 38%
    10:00 +36°C° 0 mm 2 m/S 758 mmHg 30%
    11:00 +38°C° 0 mm 2 m/S 757 mmHg 22%
    12:00 +40°C° 0 mm 2 m/S 757 mmHg 19%
    13:00 +42°C° 0 mm 3 m/S 756 mmHg 16%
    14:00 +44°C° 0 mm 3 m/S 755 mmHg 14%
    15:00 +44°C° 0 mm 3 m/S 754 mmHg 13%
    16:00 +44°C° 0 mm 3 m/S 754 mmHg 13%
    17:00 +44°C° 0 mm 3 m/S 754 mmHg 12%
    18:00 +42°C° 0 mm 3 m/S 754 mmHg 16%
    19:00 +40°C° 0 mm 4 m/S 755 mmHg 19%
    20:00 +37°C° 0 mm 5 m/S 755 mmHg 22%
    21:00 +35°C° 0 mm 5 m/S 756 mmHg 27%
    22:00 +33°C° 0 mm 4 m/S 756 mmHg 32%
    23:00 +30°C° 0 mm 4 m/S 757 mmHg 37%

    26 Mai, Samstag

    Zeit Temperatur Niederschläge Wind Luftdruck Luftfeuchtigkeit
    00:00 +29°C° 0 mm 4 m/S 756 mmHg 41%
    01:00 +28°C° 0 mm 3 m/S 756 mmHg 44%
    02:00 +27°C° 0 mm 3 m/S 756 mmHg 47%
    03:00 +26°C° 0 mm 2 m/S 756 mmHg 49%
    04:00 +26°C° 0 mm 2 m/S 756 mmHg 52%
    05:00 +25°C° 0 mm 2 m/S 756 mmHg 54%
    06:00 +26°C° 0 mm 2 m/S 757 mmHg 50%
    07:00 +27°C° 0 mm 2 m/S 757 mmHg 46%
    08:00 +28°C° 0 mm 2 m/S 758 mmHg 42%
    09:00 +31°C° 0 mm 2 m/S 757 mmHg 34%
    10:00 +35°C° 0 mm 2 m/S 757 mmHg 27%
    11:00 +38°C° 0 mm 2 m/S 757 mmHg 19%
    12:00 +39°C° 0 mm 2 m/S 756 mmHg 17%
    13:00 +41°C° 0 mm 2 m/S 755 mmHg 14%
    14:00 +43°C° 0 mm 2 m/S 754 mmHg 12%
    15:00 +44°C° 0 mm 3 m/S 754 mmHg 12%
    16:00 +44°C° 0 mm 3 m/S 754 mmHg 11%
    17:00 +44°C° 0 mm 3 m/S 753 mmHg 11%
    18:00 +42°C° 0 mm 3 m/S 754 mmHg 14%
    19:00 +39°C° 0 mm 3 m/S 755 mmHg 17%
    20:00 +37°C° 0 mm 4 m/S 756 mmHg 20%
    21:00 +35°C° 0 mm 4 m/S 756 mmHg 25%
    22:00 +34°C° 0 mm 4 m/S 756 mmHg 31%
    23:00 +32°C° 0 mm 4 m/S 757 mmHg 36%

    27 Mai, Sonntag

    Zeit Temperatur Niederschläge Wind Luftdruck Luftfeuchtigkeit
    00:00 +30°C° 0 mm 4 m/S 757 mmHg 39%
    01:00 +28°C° 0 mm 4 m/S 756 mmHg 42%
    02:00 +27°C° 0 mm 4 m/S 756 mmHg 45%
    03:00 +26°C° 0 mm 3 m/S 757 mmHg 48%
    04:00 +26°C° 0 mm 2 m/S 757 mmHg 52%
    05:00 +25°C° 0 mm 2 m/S 757 mmHg 55%
    06:00 +26°C° 0 mm 2 m/S 758 mmHg 51%
    07:00 +27°C° 0 mm 2 m/S 758 mmHg 47%
    08:00 +29°C° 0 mm 2 m/S 759 mmHg 42%
    09:00 +31°C° 0 mm 2 m/S 758 mmHg 35%
    10:00 +35°C° 0 mm 2 m/S 758 mmHg 27%
    11:00 +38°C° 0 mm 2 m/S 758 mmHg 19%
    12:00 +40°C° 0 mm 2 m/S 757 mmHg 17%
    13:00 +43°C° 0 mm 3 m/S 756 mmHg 14%
    14:00 +44°C° 0 mm 3 m/S 755 mmHg 12%
    15:00 +45°C° 0 mm 3 m/S 755 mmHg 12%
    16:00 +45°C° 0 mm 3 m/S 754 mmHg 11%
    17:00 +45°C° 0 mm 3 m/S 754 mmHg 11%
    18:00 +43°C° 0 mm 4 m/S 755 mmHg 15%
    19:00 +40°C° 0 mm 4 m/S 755 mmHg 19%
    20:00 +37°C° 0 mm 5 m/S 756 mmHg 23%
    21:00 +35°C° 0 mm 5 m/S 756 mmHg 28%
    22:00 +33°C° 0 mm 5 m/S 757 mmHg 33%
    23:00 +32°C° 0 mm 5 m/S 757 mmHg 39%

    28 Mai, Montag

    Zeit Temperatur Niederschläge Wind Luftdruck Luftfeuchtigkeit
    00:00 +30°C° 0 mm 4 m/S 757 mmHg 41%
    01:00 +28°C° 0 mm 3 m/S 757 mmHg 44%
    02:00 +27°C° 0 mm 3 m/S 757 mmHg 47%
    03:00 +27°C° 0 mm 3 m/S 757 mmHg 49%
    04:00 +26°C° 0 mm 2 m/S 757 mmHg 52%
    05:00 +25°C° 0 mm 2 m/S 757 mmHg 55%
    06:00 +26°C° 0 mm 2 m/S 758 mmHg 51%
    07:00 +27°C° 0 mm 2 m/S 758 mmHg 47%
    08:00 +29°C° 0 mm 2 m/S 759 mmHg 44%
    09:00 +32°C° 0 mm 2 m/S 758 mmHg 36%
    10:00 +36°C° 0 mm 2 m/S 758 mmHg 28%
    11:00 +39°C° 0 mm 2 m/S 758 mmHg 20%
    12:00 +41°C° 0 mm 2 m/S 757 mmHg 17%
    13:00 +43°C° 0 mm 2 m/S 756 mmHg 14%
    14:00 +45°C° 0 mm 1 m/S 755 mmHg 11%
    15:00 +45°C° 0 mm 1 m/S 755 mmHg 11%
    16:00 +44°C° 0 mm 1 m/S 754 mmHg 11%
    17:00 +44°C° 0 mm 1 m/S 754 mmHg 11%
    18:00 +43°C° 0 mm 3 m/S 755 mmHg 15%
    19:00 +41°C° 0 mm 4 m/S 755 mmHg 20%
    20:00 +37°C° 0 mm 5 m/S 756 mmHg 25%
    21:00 +35°C° 0 mm 5 m/S 757 mmHg 32%
    22:00 +33°C° 0 mm 5 m/S 757 mmHg 39%
    23:00 +30°C° 0 mm 4 m/S 758 mmHg 45%
    Mehr zeigen